| time (UTC) | temp F | wind direction | speed MPH | gust MPH | rain 1hr in | rain 24hr in | rain mn in | humidity % | barometer mb |
| 20260906194304 | 65 | 275 | 0.0 | 2.0 | 0.00 | 0.45 | 0.30 | 51 | 1011.5 |
| 20260906192307 | 66 | 38 | 0.0 | 1.0 | 0.00 | 0.45 | 0.30 | 55 | 1011.5 |
| 20260906190805 | 66 | 255 | 0.0 | 5.0 | 0.00 | 0.45 | 0.30 | 49 | 1011.5 |
| 20260906190304 | 66 | 297 | 0.0 | 3.0 | 0.00 | 0.45 | 0.30 | 48 | 1011.5 |
| 20260906185306 | 66 | 188 | 1.0 | 7.0 | 0.00 | 0.45 | 0.30 | 53 | 1012.5 |
| 20260906183804 | 65 | 59 | 0.0 | 5.0 | 0.00 | 0.45 | 0.30 | 57 | 1012.5 |
| 20260906183305 | 65 | 81 | 1.0 | 6.0 | 0.00 | 0.45 | 0.30 | 64 | 1012.5 |
| 20260906182804 | 65 | 342 | 0.0 | 3.0 | 0.00 | 0.45 | 0.30 | 59 | 1012.5 |
| 20260906182306 | 64 | 91 | 2.0 | 9.0 | 0.00 | 0.45 | 0.30 | 58 | 1012.5 |
| 20260906181805 | 64 | 31 | 1.0 | 3.0 | 0.00 | 0.45 | 0.30 | 65 | 1012.5 |
| 20260906181305 | 64 | 256 | 0.0 | 0.0 | 0.00 | 0.45 | 0.30 | 68 | 1012.5 |
| 20260906180304 | 64 | 66 | 0.0 | 3.0 | 0.00 | 0.45 | 0.30 | 68 | 1012.5 |
| 20260906175805 | 64 | 25 | 1.0 | 7.0 | 0.00 | 0.45 | 0.30 | 71 | 1012.5 |
| 20260906174805 | 63 | 267 | 0.0 | 0.0 | 0.00 | 0.45 | 0.30 | 73 | 1012.5 |
| 20260906174304 | 64 | 267 | 0.0 | 0.0 | 0.00 | 0.45 | 0.30 | 75 | 1012.5 |
| 20260906172805 | 63 | 240 | 0.0 | 0.0 | 0.00 | 0.45 | 0.30 | 77 | 1012.5 |
| 20260906171804 | 63 | 229 | 0.0 | 6.0 | 0.00 | 0.45 | 0.30 | 73 | 1012.5 |
| 20260906171304 | 63 | 77 | 0.0 | 5.0 | 0.00 | 0.45 | 0.30 | 74 | 1012.5 |
| 20260906170804 | 62 | 45 | 0.0 | 2.0 | 0.00 | 0.45 | 0.30 | 78 | 1012.6 |
| 20260906170305 | 61 | 38 | 0.0 | 1.0 | 0.00 | 0.45 | 0.30 | 79 | 1012.9 |
| 20260906165804 | 62 | 56 | 0.0 | 3.0 | 0.00 | 0.45 | 0.30 | 81 | 1012.9 |
| 20260906165306 | 61 | 45 | 0.0 | 0.0 | 0.00 | 0.45 | 0.30 | 81 | 1012.9 |
| 20260906164804 | 62 | 45 | 0.0 | 1.0 | 0.00 | 0.45 | 0.30 | 81 | 1012.9 |
| 20260906164304 | 62 | 82 | 0.0 | 0.0 | 0.00 | 0.45 | 0.30 | 82 | 1012.9 |
| 20260906163304 | 61 | 89 | 0.0 | 0.0 | 0.00 | 0.45 | 0.30 | 82 | 1012.9 |
| 20260906162804 | 61 | 48 | 0.0 | 1.0 | 0.00 | 0.45 | 0.30 | 82 | 1012.9 |
| 20260906161804 | 62 | 40 | 0.0 | 0.0 | 0.04 | 0.45 | 0.30 | 84 | 1012.9 |
| 20260906160805 | 61 | 13 | 0.0 | 0.0 | 0.07 | 0.45 | 0.30 | 83 | 1013.0 |
| 20260906154305 | 59 | 279 | 0.0 | 1.0 | 0.07 | 0.45 | 0.30 | 81 | 1013.3 |
| 20260906153804 | 60 | 273 | 0.0 | 0.0 | 0.07 | 0.45 | 0.30 | 81 | 1013.3 |
| 20260906153304 | 60 | 273 | 0.0 | 0.0 | 0.07 | 0.45 | 0.30 | 81 | 1013.3 |
| 20260906152307 | 60 | 284 | 0.0 | 3.0 | 0.07 | 0.45 | 0.30 | 79 | 1013.0 |
| 20260906151805 | 61 | 68 | 0.0 | 0.0 | 0.03 | 0.41 | 0.26 | 79 | 1013.0 |
| 20260906150305 | 61 | 81 | 0.0 | 3.0 | 0.00 | 0.38 | 0.23 | 85 | 1013.1 |
| 20260906145805 | 59 | 90 | 0.0 | 2.0 | 0.00 | 0.38 | 0.23 | 86 | 1013.1 |
| 20260906145306 | 60 | 89 | 0.0 | 0.0 | 0.00 | 0.38 | 0.23 | 87 | 1013.1 |
| 20260906143805 | 60 | 308 | 0.0 | 0.0 | 0.00 | 0.38 | 0.23 | 88 | 1013.1 |
| 20260906143304 | 59 | 308 | 0.0 | 0.0 | 0.00 | 0.38 | 0.23 | 88 | 1013.1 |
| 20260906141804 | 59 | 293 | 0.0 | 0.0 | 0.00 | 0.38 | 0.23 | 88 | 1013.1 |
| 20260906141305 | 59 | 293 | 0.0 | 0.0 | 0.00 | 0.38 | 0.23 | 88 | 1013.1 |
| 20260906140805 | 59 | 293 | 0.0 | 0.0 | 0.00 | 0.38 | 0.23 | 88 | 1013.1 |
| 20260906140305 | 58 | 293 | 0.0 | 2.0 | 0.00 | 0.38 | 0.23 | 88 | 1013.0 |
| 20260906134804 | 59 | 33 | 0.0 | 0.0 | 0.00 | 0.38 | 0.23 | 89 | 1013.0 |
| 20260906134304 | 59 | 33 | 0.0 | 0.0 | 0.00 | 0.38 | 0.23 | 89 | 1013.0 |
| 20260906133805 | 58 | 34 | 0.0 | 0.0 | 0.01 | 0.38 | 0.23 | 89 | 1013.0 |
| 20260906133305 | 58 | 74 | 0.0 | 0.0 | 0.01 | 0.38 | 0.23 | 88 | 1013.0 |
| 20260906132805 | 57 | 74 | 0.0 | 0.0 | 0.01 | 0.38 | 0.23 | 88 | 1013.0 |
| 20260906132306 | 57 | 74 | 0.0 | 0.0 | 0.01 | 0.38 | 0.23 | 88 | 1013.0 |
| 20260906131304 | 57 | 74 | 0.0 | 0.0 | 0.02 | 0.38 | 0.23 | 88 | 1013.0 |
| 20260906130804 | 57 | 74 | 0.0 | 0.0 | 0.02 | 0.38 | 0.23 | 88 | 1013.0 |
| 20260906124805 | 56 | 74 | 0.0 | 0.0 | 0.05 | 0.38 | 0.23 | 88 | 1013.0 |
| 20260906123804 | 56 | 74 | 0.0 | 0.0 | 0.06 | 0.37 | 0.22 | 88 | 1013.0 |
| 20260906122804 | 56 | 74 | 0.0 | 0.0 | 0.08 | 0.37 | 0.22 | 88 | 1013.0 |
| 20260906121804 | 56 | 74 | 0.0 | 0.0 | 0.08 | 0.36 | 0.21 | 88 | 1012.6 |
| 20260906120304 | 56 | 74 | 0.0 | 0.0 | 0.08 | 0.36 | 0.21 | 88 | 1012.6 |
| 20260906114805 | 56 | 74 | 0.0 | 0.0 | 0.06 | 0.33 | 0.18 | 88 | 1012.6 |
| 20260906113805 | 57 | 74 | 0.0 | 0.0 | 0.04 | 0.31 | 0.16 | 88 | 1012.6 |
| 20260906113305 | 57 | 74 | 0.0 | 0.0 | 0.02 | 0.29 | 0.14 | 88 | 1012.4 |
| 20260906112805 | 57 | 74 | 0.0 | 0.0 | 0.02 | 0.29 | 0.14 | 88 | 1012.4 |
| 20260906112306 | 57 | 74 | 0.0 | 0.0 | 0.01 | 0.28 | 0.13 | 88 | 1012.4 |
| 20260906110804 | 57 | 74 | 0.0 | 0.0 | 0.01 | 0.28 | 0.13 | 88 | 1012.0 |
| 20260906110304 | 57 | 74 | 0.0 | 0.0 | 0.01 | 0.28 | 0.13 | 88 | 1012.0 |
| 20260906105306 | 57 | 74 | 0.0 | 0.0 | 0.01 | 0.28 | 0.13 | 88 | 1012.0 |
| 20260906102306 | 57 | 74 | 0.0 | 0.0 | 0.02 | 0.27 | 0.12 | 88 | 1011.9 |
| 20260906093804 | 57 | 74 | 0.0 | 0.0 | 0.05 | 0.27 | 0.12 | 87 | 1011.1 |
| 20260906091804 | 57 | 74 | 0.0 | 0.0 | 0.04 | 0.25 | 0.10 | 87 | 1011.1 |
| 20260906091305 | 57 | 74 | 0.0 | 0.0 | 0.04 | 0.25 | 0.10 | 87 | 1011.1 |
| 20260906090805 | 58 | 74 | 0.0 | 0.0 | 0.03 | 0.24 | 0.09 | 87 | 1010.9 |
| 20260906090305 | 58 | 74 | 0.0 | 1.0 | 0.03 | 0.23 | 0.08 | 87 | 1010.9 |
| 20260906085805 | 58 | 13 | 0.0 | 0.0 | 0.04 | 0.23 | 0.08 | 87 | 1010.9 |
| 20260906085306 | 58 | 13 | 0.0 | 0.0 | 0.03 | 0.22 | 0.07 | 87 | 1010.9 |
| 20260906084304 | 58 | 13 | 0.0 | 0.0 | 0.03 | 0.22 | 0.07 | 87 | 1010.9 |
| 20260906083304 | 58 | 13 | 0.0 | 0.0 | 0.03 | 0.22 | 0.07 | 87 | 1010.9 |
| 20260906081304 | 58 | 13 | 0.0 | 0.0 | 0.03 | 0.21 | 0.06 | 87 | 1010.9 |
| 20260906080804 | 58 | 13 | 0.0 | 0.0 | 0.04 | 0.21 | 0.06 | 87 | 1010.9 |
| 20260906073804 | 58 | 13 | 0.0 | 0.0 | 0.03 | 0.19 | 0.04 | 87 | 1010.5 |
| 20260906072805 | 59 | 13 | 0.0 | 0.0 | 0.03 | 0.19 | 0.04 | 87 | 1010.5 |
| 20260906071804 | 59 | 13 | 0.0 | 0.0 | 0.02 | 0.18 | 0.03 | 87 | 1010.5 |
| 20260906065805 | 59 | 13 | 0.0 | 0.0 | 0.00 | 0.16 | 0.01 | 86 | 1010.5 |
| 20260906064804 | 59 | 13 | 0.0 | 0.0 | 0.00 | 0.16 | 0.01 | 86 | 1010.5 |
| 20260906063305 | 59 | 13 | 0.0 | 0.0 | 0.00 | 0.16 | 0.01 | 86 | 1010.5 |
| 20260906062306 | 59 | 13 | 0.0 | 0.0 | 0.00 | 0.16 | 0.01 | 86 | 1010.5 |
| 20260906061805 | 59 | 13 | 0.0 | 0.0 | 0.00 | 0.16 | 0.01 | 86 | 1010.5 |
| 20260906060305 | 59 | 13 | 0.0 | 0.0 | 0.00 | 0.16 | 0.01 | 86 | 1010.5 |
| 20260906055805 | 59 | 13 | 0.0 | 0.0 | 0.00 | 0.16 | 0.01 | 86 | 1010.5 |
| 20260906055306 | 59 | 13 | 0.0 | 0.0 | 0.00 | 0.16 | 0.01 | 86 | 1010.5 |
| 20260906054804 | 59 | 13 | 0.0 | 0.0 | 0.00 | 0.16 | 0.01 | 86 | 1010.6 |
| 20260906053805 | 59 | 13 | 0.0 | 0.0 | 0.00 | 0.16 | 0.01 | 86 | 1010.6 |
| 20260906051804 | 59 | 13 | 0.0 | 0.0 | 0.01 | 0.16 | 0.01 | 85 | 1010.6 |
| 20260906051304 | 59 | 13 | 0.0 | 0.0 | 0.01 | 0.16 | 0.01 | 85 | 1010.6 |
| 20260906050804 | 59 | 13 | 0.0 | 0.0 | 0.01 | 0.16 | 0.01 | 85 | 1010.6 |
| 20260906045805 | 59 | 13 | 0.0 | 0.0 | 0.01 | 0.16 | 0.01 | 85 | 1010.6 |
| 20260906045306 | 59 | 13 | 0.0 | 0.0 | 0.01 | 0.16 | 0.01 | 85 | 1010.6 |
| 20260906044304 | 59 | 13 | 0.0 | 0.0 | 0.01 | 0.16 | 0.01 | 85 | 1010.7 |
| 20260906043304 | 59 | 13 | 0.0 | 0.0 | 0.01 | 0.16 | 0.01 | 85 | 1010.6 |
| 20260906042306 | 59 | 13 | 0.0 | 0.0 | 0.00 | 0.15 | 0.00 | 85 | 1010.6 |
| 20260906041805 | 59 | 13 | 0.0 | 0.0 | 0.00 | 0.15 | 0.00 | 85 | 1010.6 |
| 20260906034805 | 60 | 13 | 0.0 | 0.0 | 0.02 | 0.15 | 0.15 | 84 | 1010.5 |
| 20260906033804 | 60 | 13 | 0.0 | 0.0 | 0.03 | 0.15 | 0.15 | 84 | 1010.5 |
| 20260906032804 | 60 | 13 | 0.0 | 0.0 | 0.05 | 0.15 | 0.15 | 84 | 1010.1 |
| 20260906032306 | 60 | 13 | 0.0 | 0.0 | 0.05 | 0.15 | 0.15 | 84 | 1010.1 |
| 20260906031805 | 60 | 13 | 0.0 | 0.0 | 0.06 | 0.15 | 0.15 | 84 | 1010.1 |
| 20260906031304 | 60 | 13 | 0.0 | 0.0 | 0.06 | 0.15 | 0.15 | 84 | 1010.1 |
| 20260906030804 | 60 | 13 | 0.0 | 0.0 | 0.07 | 0.15 | 0.15 | 84 | 1010.1 |
| 20260906030305 | 60 | 13 | 0.0 | 0.0 | 0.07 | 0.14 | 0.14 | 84 | 1010.1 |
| 20260906023805 | 61 | 14 | 0.0 | 0.0 | 0.10 | 0.12 | 0.12 | 83 | 1010.3 |
| 20260906022805 | 61 | 14 | 0.0 | 0.0 | 0.10 | 0.10 | 0.10 | 82 | 1010.3 |
| 20260906021304 | 61 | 13 | 0.0 | 0.0 | 0.09 | 0.09 | 0.09 | 81 | 1010.3 |
| 20260906014304 | 62 | 13 | 0.0 | 0.0 | 0.04 | 0.04 | 0.04 | 78 | 1010.2 |
| 20260906013805 | 62 | 13 | 0.0 | 0.0 | 0.02 | 0.02 | 0.02 | 77 | 1010.2 |
| 20260906012804 | 62 | 69 | 0.0 | 0.0 | 0.00 | 0.00 | 0.00 | 76 | 1009.6 |
| 20260906012306 | 62 | 69 | 0.0 | 2.0 | 0.00 | 0.00 | 0.00 | 75 | 1009.6 |
| 20260906011804 | 63 | 94 | 1.0 | 3.0 | 0.00 | 0.00 | 0.00 | 74 | 1009.6 |
| 20260906010304 | 63 | 128 | 2.0 | 5.0 | 0.00 | 0.00 | 0.00 | 71 | 1009.6 |
| 20260906004805 | 64 | 123 | 0.0 | 3.0 | 0.00 | 0.00 | 0.00 | 68 | 1009.6 |
| 20260906002805 | 65 | 118 | 1.0 | 7.0 | 0.00 | 0.00 | 0.00 | 69 | 1008.4 |
| 20260906001304 | 66 | 61 | 0.0 | 2.0 | 0.00 | 0.00 | 0.00 | 68 | 1008.4 |
| 20260906000804 | 66 | 63 | 1.0 | 5.0 | 0.00 | 0.00 | 0.00 | 67 | 1008.4 |
| 20260906000304 | 66 | 80 | 1.0 | 7.0 | 0.00 | 0.00 | 0.00 | 67 | 1008.4 |
| 20260905235805 | 66 | 32 | 0.0 | 5.0 | 0.00 | 0.00 | 0.00 | 67 | 1008.4 |
| 20260905234804 | 67 | 84 | 0.0 | 1.0 | 0.00 | 0.00 | 0.00 | 67 | 1008.4 |
| 20260905234304 | 67 | 51 | 0.0 | 3.0 | 0.00 | 0.00 | 0.00 | 67 | 1008.4 |
| 20260905233804 | 67 | 44 | 0.0 | 3.0 | 0.00 | 0.00 | 0.00 | 66 | 1008.4 |
| 20260905233304 | 67 | 351 | 0.0 | 0.0 | 0.00 | 0.00 | 0.00 | 66 | 1008.4 |
| 20260905232306 | 67 | 342 | 0.0 | 0.0 | 0.00 | 0.00 | 0.00 | 67 | 1008.4 |
| 20260905231805 | 67 | 346 | 0.0 | 0.0 | 0.00 | 0.00 | 0.00 | 66 | 1008.4 |
| 20260905231305 | 68 | 346 | 0.0 | 0.0 | 0.00 | 0.00 | 0.00 | 67 | 1008.4 |
| 20260905230804 | 68 | 346 | 0.0 | 0.0 | 0.00 | 0.00 | 0.00 | 66 | 1008.4 |
| 20260905225306 | 68 | 346 | 0.0 | 0.0 | 0.00 | 0.00 | 0.00 | 66 | 1007.9 |
| 20260905223805 | 67 | 340 | 0.0 | 0.0 | 0.00 | 0.00 | 0.00 | 67 | 1007.9 |
| 20260905222306 | 68 | 340 | 0.0 | 0.0 | 0.00 | 0.00 | 0.00 | 67 | 1007.9 |
| 20260905221804 | 68 | 340 | 0.0 | 0.0 | 0.00 | 0.00 | 0.00 | 67 | 1007.9 |
| 20260905220805 | 69 | 340 | 0.0 | 0.0 | 0.00 | 0.00 | 0.00 | 66 | 1007.9 |
| 20260905214304 | 70 | 64 | 0.0 | 0.0 | 0.00 | 0.00 | 0.00 | 61 | 1007.7 |
| 20260905213305 | 70 | 64 | 0.0 | 0.0 | 0.00 | 0.00 | 0.00 | 59 | 1007.7 |
| 20260905212306 | 69 | 40 | 0.0 | 0.0 | 0.00 | 0.00 | 0.00 | 61 | 1007.5 |
| 20260905211805 | 69 | 30 | 0.0 | 0.0 | 0.00 | 0.00 | 0.00 | 62 | 1007.5 |
| 20260905205805 | 69 | 19 | 0.0 | 1.0 | 0.00 | 0.00 | 0.00 | 60 | 1007.3 |
| 20260905203804 | 70 | 57 | 0.0 | 0.0 | 0.00 | 0.00 | 0.00 | 64 | 1007.3 |
| 20260905202804 | 70 | 56 | 0.0 | 0.0 | 0.00 | 0.00 | 0.00 | 61 | 1007.3 |
| 20260905202306 | 70 | 55 | 0.0 | 0.0 | 0.00 | 0.00 | 0.00 | 61 | 1007.3 |
| 20260905200304 | 70 | 52 | 0.0 | 0.0 | 0.00 | 0.00 | 0.00 | 60 | 1007.3 |
| 20260905195804 | 70 | 52 | 0.0 | 2.0 | 0.00 | 0.00 | 0.00 | 60 | 1007.3 |
| 20260905195306 | 70 | 42 | 0.0 | 1.0 | 0.00 | 0.00 | 0.00 | 58 | 1007.3 |